Flag for Russia Weather past 2 weeks in Saratov, Russia

Now
32 °F

Clear.


Feels Like: 26 °F
Forecast: 24 / 33 °F
Wind: 6 mph from Southwest

Location: Saratov / Tsentralny

Current Time: Dec 22, 2014 at 9:07:12 PM

Latest Report: Dec 22, 2014 at 8:30 PM


Visibility: 10 mi

Pressure: 29.65 "Hg

Humidity: 80%

Dew point: 27 °F

Location of SaratovLocation

Historic Weather in Saratov — Graph

°F

Saratov temperature yesterday

Maximum temperature yesterday: 37 °F (at 7:00 AM)
Minimum temperature yesterday: 32 °F (at 5:00 PM)
Average temperature yesterday: 35 °F

Past Weeks' High & Low Weather Summary

 TemperatureHumidityPressure
High52 °F (Dec 8, 7:00 PM)100% (Dec 12, 1:00 AM)30.54 "Hg (Dec 12, 1:00 AM)
Low5 °F (Dec 8, 8:00 AM)15% (Dec 8, 7:00 PM)29.62 "Hg (Dec 22, 10:00 AM)
Average26 °F91%30.16 "Hg
* Reported Dec 7 8:00 PM — Dec 22 8:00 PM, Saratov, Weather by CustomWeather, © 2014

Note: Actual official high and low records may vary slightly from our data, if they occured in-between our weather recording intervals... More about our weather records

Advertising

Saratov weather history for previous 24 hours

 ConditionsComfort  
Time TempWeatherWind HumidityBarometerVisibility
8:00 PM
Dec 22
32 °FClear.6 mph80%29.68 "Hg10 mi
7:30 PM32 °FClear.10 mph80%29.65 "Hg10 mi
7:00 PM32 °FClear.10 mph80%29.68 "Hg10 mi
6:30 PM32 °FClear.10 mph87%29.65 "Hg10 mi
6:00 PM32 °FClear.10 mph87%29.68 "Hg10 mi
5:30 PM34 °FPassing clouds.13 mph87%29.65 "HgN/A
5:00 PM34 °FPartly cloudy.13 mph87%29.65 "HgN/A
4:30 PM34 °FPartly sunny.13 mph81%29.65 "HgN/A
4:00 PM34 °FPartly sunny.13 mph81%29.65 "HgN/A
3:00 PM34 °FPartly sunny.10 mph87%29.62 "HgN/A
2:30 PM34 °FPartly sunny.10 mph93%29.62 "HgN/A
2:00 PM34 °FPartly sunny.13 mph93%29.62 "HgN/A
1:30 PM34 °FOvercast.10 mph93%29.62 "HgN/A
1:00 PM34 °FOvercast.13 mph93%29.62 "HgN/A
12:30 PM32 °FOvercast.13 mph93%29.62 "HgN/A
12:00 PM32 °FLight rain. Ice fog.3 mph93%29.62 "Hg2 mi
11:30 AM32 °FLight rain. Ice fog.3 mph100%29.62 "Hg1 mi
11:00 AM32 °FLight rain. Ice fog.3 mph100%29.62 "Hg1 mi
10:00 AM32 °FDrizzle. Fog.8 mph100%29.62 "Hg0 mi
9:30 AM32 °FLight freezing rain. Ice fog.6 mph100%29.65 "Hg1 mi
9:00 AM32 °FLight freezing rain. Ice fog.6 mph100%29.65 "Hg1 mi
8:30 AM30 °FLight freezing rain. Ice fog.3 mph100%29.65 "Hg0 mi
8:00 AM30 °FLight freezing rain. Ice fog.3 mph100%29.65 "Hg0 mi
7:30 AM32 °FLight freezing rain. Ice fog.6 mph100%29.65 "Hg0 mi
6:30 AM32 °FFog.6 mph100%29.68 "Hg0 mi
6:00 AM32 °FFog.6 mph100%29.68 "Hg0 mi
5:30 AM32 °FFog.8 mph100%29.74 "Hg0 mi
5:00 AM32 °FFog.6 mph100%29.74 "Hg0 mi
4:30 AM32 °FFog.6 mph100%29.74 "Hg0 mi
4:00 AM32 °FFog.6 mph100%29.74 "Hg0 mi
3:30 AM32 °FFog.6 mph100%29.77 "Hg0 mi
3:00 AM32 °FFog.6 mph100%29.77 "Hg0 mi
2:30 AM32 °FFog.3 mph100%29.77 "Hg0 mi
2:00 AM32 °FFog.3 mph100%29.77 "Hg0 mi
1:30 AM34 °FFog.6 mph100%29.77 "Hg0 mi
12:30 AM34 °FFog.6 mph100%29.80 "Hg0 mi
12:00 AM34 °FFog.6 mph100%29.80 "Hg0 mi
11:30 PM
Dec 21
34 °FFog.8 mph100%29.80 "Hg0 mi
11:00 PM34 °FFog.8 mph100%29.80 "Hg0 mi
10:30 PM34 °FFog.10 mph93%29.80 "Hg0 mi
10:00 PM34 °FFog.10 mph93%29.80 "Hg0 mi
9:30 PM34 °FFog.8 mph100%29.83 "Hg0 mi
9:00 PM34 °FFog.6 mph100%29.83 "Hg0 mi
Weather by CustomWeather, © 2014

See weather overviewHow to use our weather pages